KC3QLX Weather Reports


Display with metric or nautical units.
time (UTC)temp
F
wind
direction
speed
MPH
gust
MPH
rain 1hr
in
rain 24hr
in
rain mn
in
humidity
%
barometer
mb
20260504110514 33 224 0.0 0.0 0.00 0.00 0.00 98 1013.7
20260504100326 33 224 0.0 0.0 0.00 0.00 0.00 98 1013.5
20260504081720 34 225 0.0 0.0 0.00 0.00 0.00 96 1014.0
20260504081216 34 225 0.0 0.0 0.00 0.00 0.00 96 1013.8
20260504080713 33 225 0.0 0.0 0.00 0.00 0.00 95 1013.7
20260504080209 34 225 0.0 0.0 0.00 0.00 0.00 95 1013.7
20260504070137 35 225 0.0 0.0 0.00 0.00 0.00 94 1013.6
20260504050526 37 225 0.0 0.0 0.00 0.00 0.00 90 1013.7
20260504050023 37 225 0.0 0.0 0.00 0.00 0.00 90 1013.6
20260504045520 37 225 0.0 0.0 0.00 0.00 0.00 90 1013.5
20260504045015 38 225 0.0 0.0 0.00 0.00 0.00 90 1013.5
20260504044513 38 225 0.0 0.0 0.00 0.00 0.00 89 1013.5
20260504044009 38 225 0.0 0.0 0.00 0.00 0.00 89 1013.6
20260504043506 38 225 0.0 0.0 0.00 0.00 0.00 88 1013.5
20260504043004 38 225 0.0 0.0 0.00 0.00 0.00 87 1013.5
20260504042500 38 225 0.0 0.0 0.00 0.00 0.00 87 1013.7
20260504041957 38 225 0.0 0.0 0.00 0.00 0.00 88 1013.5
20260504041454 38 225 0.0 0.0 0.00 0.00 0.00 89 1013.4
20260504040949 38 225 0.0 0.0 0.00 0.00 0.00 89 1013.4
20260504040447 39 225 0.0 0.0 0.00 0.00 0.00 90 1013.3
20260504035943 39 225 0.0 0.0 0.00 0.00 0.00 89 1013.3
20260504035441 39 225 0.0 0.0 0.00 0.00 0.00 89 1013.1
20260504034937 39 225 0.0 0.0 0.00 0.00 0.00 89 1013.1
20260504034435 40 225 0.0 0.0 0.00 0.00 0.00 89 1012.9
20260504033932 40 225 0.0 0.0 0.00 0.00 0.00 89 1012.8
20260504033429 40 225 0.0 0.0 0.00 0.00 0.00 88 1013.0
20260504032926 40 225 0.0 0.0 0.00 0.00 0.00 87 1012.7
20260504032423 40 225 0.0 0.0 0.00 0.00 0.00 86 1012.6
20260504031920 40 225 0.0 0.0 0.00 0.00 0.00 86 1012.8
20260504031417 40 225 0.0 0.0 0.00 0.00 0.00 85 1012.9
20260504030913 41 225 0.0 0.0 0.00 0.00 0.00 86 1012.8
20260504030411 41 225 0.0 0.0 0.00 0.00 0.00 86 1012.7
20260504025906 41 225 0.0 0.0 0.00 0.00 0.00 86 1012.8
20260504025404 41 225 0.0 0.0 0.00 0.00 0.00 85 1012.7
20260504024901 42 225 0.0 0.0 0.00 0.00 0.00 84 1012.5
20260504024357 42 225 0.0 0.0 0.00 0.00 0.00 84 1012.8
20260504023854 42 225 0.0 0.0 0.00 0.00 0.00 80 1012.8
20260504023350 42 225 0.0 0.0 0.00 0.00 0.00 78 1012.6
20260504022846 42 225 0.0 0.0 0.00 0.00 0.00 77 1012.6
20260504022343 42 225 0.0 0.0 0.00 0.00 0.00 75 1012.7
20260504021839 42 225 0.0 0.0 0.00 0.00 0.00 75 1012.6
20260504021337 42 225 0.0 0.0 0.00 0.00 0.00 74 1012.9
20260504020834 43 225 0.0 0.0 0.00 0.00 0.00 73 1012.8
20260504020331 43 225 0.0 0.0 0.00 0.00 0.00 74 1012.7
20260504015826 43 225 0.0 0.0 0.00 0.00 0.00 72 1012.9
20260504015323 44 225 0.0 0.0 0.00 0.00 0.00 71 1012.7
20260504014820 44 225 0.0 0.0 0.00 0.00 0.00 70 1012.6
20260504014315 44 224 0.0 0.0 0.00 0.00 0.00 69 1012.6
20260504013813 45 225 0.0 0.0 0.00 0.00 0.00 68 1012.6
20260504013311 45 224 0.0 0.0 0.00 0.00 0.00 67 1012.4
20260504012808 46 224 0.0 0.0 0.00 0.00 0.00 67 1012.6
20260504012305 46 224 0.0 0.0 0.00 0.00 0.00 65 1012.5
20260504011803 47 225 0.0 0.0 0.00 0.00 0.00 61 1012.6
20260504011258 48 225 0.0 0.0 0.00 0.00 0.00 60 1012.6
20260504010754 48 225 0.0 0.0 0.00 0.00 0.00 57 1012.5
20260504010250 48 225 0.0 0.0 0.00 0.00 0.00 58 1012.5
20260504005747 49 225 0.0 0.0 0.00 0.00 0.00 56 1012.3
20260504005244 49 224 0.0 0.0 0.00 0.00 0.00 55 1012.4
20260504004742 50 225 0.0 0.0 0.00 0.00 0.00 54 1012.4
20260504004239 50 225 0.0 0.0 0.00 0.00 0.00 54 1012.2
20260504003735 51 224 0.0 0.0 0.00 0.00 0.00 54 1012.3
20260504003233 51 224 0.0 0.0 0.00 0.00 0.00 52 1012.2
20260504002729 51 225 0.0 0.0 0.00 0.00 0.00 51 1011.8
20260504002226 52 224 1.0 1.0 0.00 0.00 0.00 50 1012.0
20260504001724 52 226 0.0 0.0 0.00 0.00 0.00 50 1011.7
20260504001221 53 208 0.0 0.0 0.00 0.00 0.00 50 1011.7
20260504000717 53 202 0.0 0.0 0.00 0.00 0.00 48 1011.7
20260504000214 53 236 0.0 1.0 0.00 0.00 0.00 48 1011.6
20260503235713 54 260 0.0 0.0 0.00 0.00 0.00 48 1011.6
20260503235209 54 299 0.0 1.0 0.00 0.00 0.00 46 1011.8
20260503234707 55 345 1.0 1.0 0.00 0.00 0.00 45 1011.6
20260503234205 55 237 0.0 0.0 0.00 0.00 0.00 43 1011.7
20260503233702 56 277 0.0 1.0 0.00 0.00 0.00 43 1011.7
20260503233157 56 201 0.0 0.0 0.00 0.00 0.00 43 1011.7
20260503232654 56 71 1.0 1.0 0.00 0.00 0.00 44 1011.6
20260503232151 56 303 1.0 1.0 0.00 0.00 0.00 43 1011.4
20260503231650 57 152 1.0 2.0 0.00 0.00 0.00 41 1011.3
20260503231145 57 240 1.0 2.0 0.00 0.00 0.00 41 1011.2
20260503230643 57 304 2.0 2.0 0.00 0.00 0.00 39 1011.3
20260503230140 58 328 0.0 0.0 0.00 0.00 0.00 40 1011.3
20260503225637 58 297 0.0 0.0 0.00 0.00 0.00 40 1011.4
20260503225137 57 302 1.0 1.0 0.00 0.00 0.00 42 1011.4
20260503224634 58 298 3.0 3.0 0.00 0.00 0.00 40 1011.3
20260503224132 59 286 2.0 2.0 0.00 0.00 0.00 40 1011.3
20260503223630 59 44 2.0 3.0 0.00 0.00 0.00 39 1011.3
20260503223126 59 24 2.0 3.0 0.00 0.00 0.00 38 1011.3
20260503222623 58 283 1.0 2.0 0.00 0.00 0.00 40 1011.2
20260503222121 59 222 6.0 7.0 0.00 0.00 0.00 37 1011.1
20260503221619 60 16 4.0 6.0 0.00 0.00 0.00 38 1011.1
20260503221116 60 284 3.0 3.0 0.00 0.00 0.00 37 1011.1
20260503220613 60 325 1.0 2.0 0.00 0.00 0.00 38 1011.2
20260503220110 60 268 3.0 3.0 0.00 0.00 0.00 36 1011.1
20260503215607 59 260 3.0 3.0 0.00 0.00 0.00 41 1011.2
20260503215103 60 25 3.0 3.0 0.00 0.00 0.00 39 1011.5
20260503214602 60 267 4.0 6.0 0.00 0.00 0.00 35 1011.2
20260503214058 61 253 2.0 3.0 0.00 0.00 0.00 36 1011.1
20260503213557 60 305 4.0 5.0 0.00 0.00 0.00 38 1011.0
20260503213053 59 292 2.0 3.0 0.00 0.00 0.00 36 1011.2
20260503212550 60 294 6.0 8.0 0.00 0.00 0.00 35 1011.1
20260503212048 59 37 2.0 3.0 0.00 0.00 0.00 37 1011.2
20260503211545 59 339 1.0 1.0 0.00 0.00 0.00 39 1010.9
20260503211040 58 326 1.0 1.0 0.00 0.00 0.00 38 1010.9
20260503210537 59 292 3.0 3.0 0.00 0.00 0.00 37 1011.0
20260503210033 60 123 1.0 2.0 0.00 0.00 0.00 36 1011.0
20260503205530 58 282 2.0 2.0 0.00 0.00 0.00 37 1011.1
20260503205026 59 9 3.0 5.0 0.00 0.00 0.00 36 1011.0
20260503204523 60 289 2.0 5.0 0.00 0.00 0.00 36 1011.1
20260503204020 59 293 1.0 2.0 0.00 0.00 0.00 37 1011.1
20260503203517 60 242 4.0 6.0 0.00 0.00 0.00 34 1011.1
20260503203015 60 263 3.0 3.0 0.00 0.00 0.00 36 1011.1
20260503202512 59 257 3.0 7.0 0.00 0.00 0.00 37 1011.1
20260503202010 60 279 4.0 5.0 0.00 0.00 0.00 34 1011.1
20260503201508 59 237 4.0 5.0 0.00 0.00 0.00 36 1011.2
20260503201005 59 277 1.0 1.0 0.00 0.00 0.00 35 1011.3
20260503200501 58 282 3.0 3.0 0.00 0.00 0.00 38 1011.4
20260503195957 57 284 4.0 6.0 0.00 0.00 0.00 37 1011.5
20260503195455 58 280 5.0 6.0 0.00 0.00 0.00 37 1011.4
20260503194951 59 263 3.0 3.0 0.00 0.00 0.00 37 1011.7
20260503194449 59 34 1.0 2.0 0.00 0.00 0.00 36 1011.7
20260503193944 60 153 4.0 5.0 0.00 0.00 0.00 35 1011.8
20260503193440 58 55 4.0 6.0 0.00 0.00 0.00 37 1011.9
20260503192935 58 5 3.0 3.0 0.00 0.00 0.00 37 1011.8
20260503192432 57 340 3.0 3.0 0.00 0.00 0.00 36 1012.0
20260503191927 58 355 2.0 3.0 0.00 0.00 0.00 35 1012.3
20260503191426 58 249 5.0 8.0 0.00 0.00 0.00 34 1011.9
20260503190922 59 108 3.0 3.0 0.00 0.00 0.00 35 1012.2
20260503190419 58 285 0.0 1.0 0.00 0.00 0.00 36 1012.0
20260503185916 58 294 4.0 5.0 0.00 0.00 0.00 35 1012.1
20260503185412 56 271 2.0 3.0 0.00 0.00 0.00 37 1012.3
20260503184911 57 342 3.0 3.0 0.00 0.00 0.00 38 1012.2
20260503184408 57 284 5.0 7.0 0.00 0.00 0.00 38 1012.4
20260503183905 57 286 3.0 3.0 0.00 0.00 0.00 36 1012.5
20260503183401 56 265 3.0 7.0 0.00 0.00 0.00 39 1012.6
20260503182858 57 253 4.0 6.0 0.00 0.00 0.00 37 1012.7
20260503182357 55 303 4.0 5.0 0.00 0.00 0.00 42 1012.8
20260503181854 56 197 6.0 9.0 0.00 0.00 0.00 38 1012.9
20260503181351 56 278 5.0 6.0 0.00 0.00 0.00 39 1012.7
20260503180847 55 243 3.0 5.0 0.00 0.00 0.00 40 1012.9
20260503180346 54 270 4.0 6.0 0.00 0.00 0.00 42 1012.8
20260503175842 55 323 6.0 10.0 0.00 0.00 0.00 40 1013.0
20260503175340 53 315 2.0 2.0 0.00 0.00 0.00 43 1013.0
20260503174835 55 278 2.0 2.0 0.00 0.00 0.00 42 1013.0
20260503174333 54 113 3.0 3.0 0.00 0.00 0.00 41 1012.9
20260503173828 55 344 2.0 3.0 0.00 0.00 0.00 40 1013.1
20260503173325 53 308 3.0 3.0 0.00 0.00 0.00 46 1013.3
20260503172822 53 132 2.0 2.0 0.00 0.00 0.00 40 1012.9
20260503172320 55 299 2.0 2.0 0.00 0.00 0.00 41 1013.0
20260503171815 55 66 3.0 3.0 0.00 0.00 0.00 40 1013.4
20260503171312 52 3 2.0 2.0 0.00 0.00 0.00 42 1013.1
20260503170810 53 310 4.0 7.0 0.00 0.00 0.00 42 1013.4
20260503170306 55 335 5.0 6.0 0.00 0.00 0.00 42 1013.3
20260503150658 52 282 3.0 6.0 0.00 0.00 0.00 44 1013.9
20260503150154 51 39 4.0 6.0 0.00 0.00 0.00 42 1013.8
20260503140119 45 279 3.0 3.0 0.00 0.00 0.00 60 1014.1
20260503131048 44 25 3.0 5.0 0.00 0.00 0.00 64 1014.4
20260503130545 44 343 2.0 2.0 0.00 0.00 0.00 65 1014.3